User: anonymous
Location: Caltech
(34.1382°N, 118.1253°W)
Time: 20:57:13
(UTC-07:00)
Language:

NOSS 3-2 (A) - Orbit

View from above orbital plane
View from above orbital plane
View from above satellite
View from above satellite

Ground track
Ground track

The orbit data is extracted from the following two-line orbital elements,

1 28095U 03054A   14109.82629879 0.00000100  00000-0  15886-3 0    07
2 28095  63.4290  17.2146 0205000 358.4502   1.5498 13.41281589    04
Epoch (UTC): 19 April 2014 19:49:52
Eccentricity: 0.0205000
inclination: 63.4290°
perigee height: 951 km
apogee height: 1258 km
right ascension of ascending node: 17.2146°
argument of perigee: 358.4502°
revolutions per day: 13.41281589
mean anomaly at epoch: 1.5498°
orbit number at epoch: 0

The dashed part of the orbit path shows where the satellite is in the earth's shadow,  

DLR